Regional Weather Roundup
Issued by NWS

Home | Current Version | Previous Version | Graphics & Text | Print | Product List | Glossary On
Versions: 1 2 3 4 5 6 7 8 9 10 11 12 13 14 15 16 17 18 19 20 21 22 23 24 25 26 27 28 29 30 31 32 33 34 35 36 37 38 39 40 41 42 43 44 45 46 47 48 49 50
000
ASUS45 KBOU 192107
RWRCO

WEATHER ROUNDUP FOR COLORADO
NATIONAL WEATHER SERVICE DENVER/BOULDER CO
200 PM MST WED NOV 19 2014

NOTE: "FAIR" INDICATES FEW OR NO CLOUDS BELOW 12000 FEET WITH NO
SIGNIFICANT WEATHER AND/OR OBSTRUCTIONS TO VISIBILITY.

COZ001>005-013-030-031-192200-
...NORTHWEST COLORADO...

CITY           SKY/WX    TMP DP  RH WIND       PRES   REMARKS
CRAIG          SUNNY     45  14  28 W6        30.11F
HAYDEN         SUNNY     41  12  30 W5        30.11F
MEEKER         MOSUNNY   47  14  26 S9        30.12F
MOUNT WERNER   NOT AVBL
STEAMBOAT SPGS MOSUNNY   39   9  29 CALM      30.12F
WALDEN         CLOUDY    36  10  35 SW14G20   30.07F
$$

COZ006>008-011-192200-
...WEST CENTRAL VALLEYS...

CITY           SKY/WX    TMP DP  RH WIND       PRES   REMARKS
GRAND JUNCTION MOSUNNY   45  11  25 CALM      30.17F
MONTROSE       MOSUNNY   45  10  24 VRB5      30.18F
EAGLE          NOT AVBL
RIFLE          SUNNY     43  13  29 VRB3      30.16F
DELTA          MOSUNNY   47  12  24 SW5       30.18F
NUCLA          MOSUNNY   43  14  31 CALM      30.22F
$$

COZ017>023-064>068-192200-
...SOUTHWEST COLORADO...

CITY           SKY/WX    TMP DP  RH WIND       PRES   REMARKS
DURANGO        MOSUNNY   42  16  34 CALM      30.20F
CORTEZ         SUNNY     45  13  27 SW7       30.20F
PAGOSA SPRINGS MOSUNNY   40   9  27 CALM      30.20F
TELLURIDE      MOSUNNY   38   7  28 W8        30.21F
WOLF CREEK PAS PTSUNNY   23   3  42 SW13      30.22F WCI  11
$$

COZ009-010-012-014-032>034-037-058>063-192200-
...CENTRAL COLORADO...

CITY           SKY/WX    TMP DP  RH WIND       PRES   REMARKS
ASPEN          SUNNY     37  15  40 N7        30.14F
BUENA VISTA    SUNNY     43   8  23 W15G23    30.05F
COPPER MTN     SUNNY     28   5  37 W18G24    30.15F WCI  16
BERTHOUD PASS  FAIR      19  14  79 NW44G56   30.05F WCI  -2
COTTONWOOD PAS SUNNY     39 -13  10 W20G31    30.11F
GUNNISON       SUNNY     28  10  47 CALM      30.22F
KREMMLING      MOSUNNY   39  10  30 W16       30.12F
LEADVILLE      SUNNY     32   3  29 NW10G17   30.13F WCI  24
MONARCH PASS   SUNNY     23   3  42 SW33G43   30.26S WCI   5
SALIDA         SUNNY     47   1  14 SW20G31   30.14S
SUNLIGHT       SUNNY     32  16  51 CALM      30.19F
WILKERSON PASS SUNNY     37  -6  15 W6        30.14S
$$

COZ069>075-192200-
...SAN LUIS VALLEY/SANGRE DE CRISTO MOUNTAINS...

CITY           SKY/WX    TMP DP  RH WIND       PRES   REMARKS
ALAMOSA        SUNNY     42   7  23 SE7       30.14F
LA VETA PASS   MOSUNNY   34   3  27 S17G30    30.10F WCI  23
SAGUACHE       SUNNY     39   9  28 SW5       30.16F
$$

COZ035-036-038>040-192200-
...NORTHERN COLORADO FRONT RANGE...

CITY           SKY/WX    TMP DP  RH WIND       PRES   REMARKS
DENVER INTL AP MOSUNNY   47  18  31 E5        30.00F
DMNS CITY PARK   N/A     42  20  42 W8        30.00F
AURORA         PTSUNNY   49  13  24 N6        30.01F
FRONT RANGE AP PTSUNNY   48  18  29 E3        30.02
ERIE MUNI ARPT PTSUNNY   39  25  56 W9        30.02S
BOULDER MUN AP PTSUNNY   37  23  56 W3        30.03S
CENTENNIAL     PTSUNNY   47  14  26 N7        30.01F
BROOMFIELD     PTSUNNY   37  23  56 N10       30.02F
FORT COLLINS   SUNNY     43  21  42 SE5       30.04F
LONGMONT       SUNNY     39  24  55 CALM      30.05F
$$

COZ041-046-047-076>085-087-088-192200-
...PIKES PEAK/PALMER DIVIDE AND SOUTHERN FOOTHILLS...

CITY           SKY/WX    TMP DP  RH WIND       PRES   REMARKS
COLO. SPRINGS  PTSUNNY   46  13  26 SE10      30.04S
A. F. ACADEMY  SUNNY     47  10  22 SE10G20   30.02F
ELLICOTT       SUNNY     43  16  33 SE13      30.03F
FALCON         NOT AVBL
FORT CARSON    SUNNY     45  14  28 SE7       30.02F
LIMON          SUNNY     46  15  28 S14       30.04F
MONUMENT HILL  MOSUNNY   45   1  16 E6        30.01F
TRINIDAD       MOSUNNY   41  16  36 CALM      30.03F
$$

COZ042>045-048>051-090-091-192200-
...NORTHEAST COLORADO...

CITY           SKY/WX    TMP DP  RH WIND       PRES   REMARKS
GREELEY ARPT   SUNNY     48  19  32 SE7       30.03F
AKRON          SUNNY     46  17  31 E5        30.03F
BURLINGTON     SUNNY     74  16  11 VRB3      30.06F
WRAY           SUNNY     51  18  27 NW8       30.05F
STERLING       SUNNY     50  23  34 E3        30.03F
HOLYOKE        SUNNY     50  19  29 NW8       30.05S
FORT MORGAN    SUNNY     47  16  28 SE7       30.03F
$$

COZ086-089-092>099-192200-
...SOUTHEAST COLORADO...

CITY           SKY/WX    TMP DP  RH WIND       PRES   REMARKS
PUEBLO         SUNNY     43  22  43 E8        30.03F
LA JUNTA       SUNNY     49  26  41 E10       30.02F
LAMAR          SUNNY     51  23  33 SE15      30.05F
SPRINGFIELD      N/A     49  20  31 S16       30.07F
$$



USA.gov is the U.S. government's official web portal to all federal, state and local government web resources and services.